This is the latest recevied weather packets stored in our database for station/object N9OJR. If no packets are shown the sender has not sent any weather packets the latest 10 day(s).
| Time | Temp. | Humidity | Pressure | Rain* | Wind** | Luminosity | Snow |
|---|---|---|---|---|---|---|---|
| 1777614886 | 4.44° C | 99% | 1010.1 hPa | 0 mm | - | 0 W/m² | - |
| 1777614583 | 3.89° C | 99% | 1010.3 hPa | 0 mm | - | 0 W/m² | - |
| 1777614279 | 3.89° C | 99% | 1010.2 hPa | 0 mm | - | 0 W/m² | - |
| 1777613973 | 3.89° C | 99% | 1010 hPa | 0 mm | - | 0 W/m² | - |
| 1777613670 | 3.89° C | 99% | 1010.2 hPa | 0 mm | - | 0 W/m² | - |
| 1777613368 | 3.89° C | 99% | 1010.5 hPa | 0 mm | - | 0 W/m² | - |
| 1777613064 | 3.89° C | 99% | 1010.4 hPa | 0 mm | - | 0 W/m² | - |
| 1777612760 | 3.33° C | 99% | 1010.5 hPa | 0 mm | - | 0 W/m² | - |
| 1777612455 | 3.33° C | 99% | 1010.4 hPa | 0 mm | - | 0 W/m² | - |
| 1777612151 | 3.33° C | 99% | 1010.7 hPa | 0 mm | - | 0 W/m² | - |
| 1777611847 | 3.33° C | 99% | 1010.7 hPa | 0 mm | - | 0 W/m² | - |
| 1777611543 | 2.78° C | 99% | 1010.9 hPa | 0 mm | - | 0 W/m² | - |
| 1777611240 | 2.78° C | 98% | 1010.9 hPa | 0 mm | - | 0 W/m² | - |
| 1777610936 | 2.78° C | 98% | 1010.8 hPa | 0 mm | - | 0 W/m² | - |
| 1777610631 | 2.22° C | 98% | 1011 hPa | 0 mm | - | 0 W/m² | - |
| 1777610331 | 2.78° C | 98% | 1011.1 hPa | 0 mm | - | 0 W/m² | - |
| 1777610028 | 2.78° C | 97% | 1011.1 hPa | 0 mm | - | 0 W/m² | - |
| 1777609724 | 2.22° C | 97% | 1011.1 hPa | 0 mm | - | 0 W/m² | - |
| 1777609421 | 2.22° C | 97% | 1010.8 hPa | 0 mm | - | 0 W/m² | - |
| 1777609119 | 2.78° C | 97% | 1011 hPa | 0 mm | - | 0 W/m² | - |
| 1777608816 | 2.78° C | 97% | 1010.9 hPa | 0 mm | - | 0 W/m² | - |
| 1777608513 | 3.33° C | 96% | 1010.8 hPa | 0 mm | - | 0 W/m² | - |
| 1777608210 | 3.33° C | 96% | 1010.9 hPa | 0 mm | - | 0 W/m² | - |
| 1777607907 | 3.89° C | 96% | 1011 hPa | 0 mm | - | 0 W/m² | - |
| 1777607602 | 3.89° C | 96% | 1011 hPa | 0 mm | - | 0 W/m² | - |
* Rain latest hour (hover to see other rain measurements)
** Current wind speed in m/s (hover to see current wind gust speed)